Temp
22 20 20 21 21 24 23 23 23 21 20 20 18 19 17 18 18 19 20 21 21 21 22 21 21 21 21 21 21 21 20 20 20 20 20 19 19 20 20 20 20 20 20 20
20 19 20 22 22 23 23 24 23 20 20 20 19 19 19 18 18 19 20 21 21 22 22 22 21 21 21 21 21 21 21 20 20 20 20 20 20 20 20 19 20 20 20 20
19 21 22 23 23 23 23 22 23 23 20 20 19 19 19 19 19 19 20 21 22 22 22 22 22 22 22 21 21 21 21 20 20 20 20 20 20 20 20 19 20 20 20 20
20 22 23 22 23 23 22 23 24 20 20 20 21 20 18 19 19 19 20 22 22 22 23 23 22 22 22 22 22 21 21 21 20 20 20 20 21 20 20 20 20 20 20 20
20 20 21 22 22 23 23 24 24 22 19 20 20 19 20 19 19 20 20 21 23 23 23 23 23 23 23 22 22 21 21 21 21 20 20 20 20 21 21 20 20 20 20 20
20 22 21 21 23 23 24 25 20 17 17 18 20 20 21 18 22 21 21 21 22 23 23 24 24 24 23 23 22 21 22 21 21 21 20 20 21 21 21 20 20 20 20 20
20 21 22 23 22 23 22 21 19 19 18 18 19 19 22 23 22 23 22 21 22 23 22 23 23 23 23 23 22 22 22 21 21 21 20 20 21 21 21 21 21 21 21 20
16 18 20 22 21 20 19 20 17 20 18 20 18 20 23 22 24 25 26 24 22 23 23 24 24 24 23 23 23 22 22 22 21 21 21 21 21 21 21 21 21 21 21 21
15 17 19 21 21 21 20 19 19 18 17 18 19 20 22 23 23 23 24 23 22 23 24 24 23 24 24 24 23 23 23 22 22 21 21 21 21 21 21 21 21 21 21 21
16 18 19 21 22 21 20 19 19 15 18 19 19 21 21 23 23 22 22 22 22 23 23 23 23 23 23 24 24 23 24 23 23 22 21 21 21 21 21 21 21 21 21 21
15 16 19 20 19 19 18 19 16 16 16 17 19 19 19 22 22 21 21 23 23 23 23 23 23 23 23 23 24 24 23 23 22 22 21 21 21 21 21 21 21 21 21 21
16 12 15 18 18 18 18 18 18 16 18 15 17 19 22 20 20 21 21 24 25 25 25 24 23 23 24 23 23 24 24 23 23 23 22 22 21 21 21 21 21 21 21 21
16 12 14 16 16 18 20 18 16 14 14 16 18 19 19 18 18 19 20 20 24 25 24 23 23 23 24 24 24 23 23 24 23 23 22 22 21 21 21 21 21 21 21 21
14 10 13 14 16 16 19 19 17 16 15 17 17 21 21 20 19 17 18 19 20 22 22 23 23 23 24 24 24 24 23 23 23 23 23 22 22 22 22 21 21 21 21 21
10 15 13 14 15 18 17 17 17 18 17 19 20 18 20 18 18 16 17 18 19 19 20 21 22 22 23 23 24 24 23 22 22 22 22 22 22 22 21 22 21 21 21 21
7 14 15 18 18 17 14 15 15 15 15 17 19 19 16 17 16 16 15 15 16 16 17 20 21 22 22 22 22 23 23 23 22 22 22 21 21 21 21 21 21 21 21 21
7 9 11 16 16 16 16 15 15 16 16 16 17 17 16 17 15 14 13 13 14 15 16 17 18 19 20 20 21 21 21 21 21 21 22 22 21 21 21 21 21 21 22 22
7 9 9 12 15 16 14 16 15 15 15 15 16 15 15 14 13 12 12 12 12 13 14 15 16 16 18 18 19 20 20 20 20 20 20 21 21 20 21 21 22 22 22 22
7 8 10 12 11 13 15 15 14 14 14 14 14 14 14 13 13 12 12 12 12 12 13 13 14 15 16 18 19 18 18 19 19 20 20 21 21 21 21 21 22 22 22 22
4 4 7 9 13 13 12 12 12 12 14 13 14 13 13 14 14 13 11 11 12 12 13 13 13 15 16 17 17 17 17 19 18 18 20 20 20 21 21 21 21 21 21 22
7 6 8 9 11 11 10 9 12 13 13 12 12 12 12 12 12 11 12 11 11 11 12 12 12 13 13 14 15 16 18 18 18 18 18 18 18 19 20 20 21 21 22 22
7 8 9 8 10 12 9 11 12 12 12 12 12 12 11 11 11 11 11 11 12 12 11 11 12 12 12 12 14 15 17 16 17 18 18 19 19 19 19 18 19 21 21 21
8 8 9 9 9 8 8 7 7 10 10 11 12 11 12 11 11 11 11 11 11 12 12 13 12 12 12 12 13 13 12 15 15 16 17 18 18 18 19 19 20 20 21 21
8 8 9 8 9 8 7 8 9 9 9 10 11 12 12 12 12 12 12 12 11 11 12 12 12 12 12 12 12 13 13 13 15 15 16 17 18 18 18 18 19 19 19 19
6 7 8 7 7 8 7 7 8 8 10 10 11 10 10 11 12 12 12 12 12 12 12 12 13 13 12 12 14 14 13 13 13 14 15 16 17 18 18 18 18 18 19 19
5 6 7 6 7 6 7 6 9 9 9 9 10 11 11 10 11 11 12 12 12 12 12 12 11 13 13 12 12 13 13 13 13 13 13 14 15 17 17 18 18 17 17 18
Height
1488 1497 1506 1498 1498 1497 1502 1508 1512 1510 1509 1512 1514 1513 1513 1515 1519 1520 1523 1526 1529 1531 1535 1539 1542 1546 1550 1553 1557 1559 1563 1566 1568 1571 1574 1577 1578 1579 1582 1584 1586 1587 1590 1591
1492 1499 1489 1491 1494 1497 1500 1504 1510 1510 1509 1511 1513 1512 1511 1512 1510 1514 1517 1521 1524 1529 1532 1535 1540 1543 1547 1550 1554 1558 1561 1565 1568 1572 1575 1578 1579 1580 1582 1584 1585 1587 1590 1592
1492 1488 1485 1489 1494 1499 1501 1505 1506 1509 1510 1509 1514 1516 1510 1508 1510 1514 1514 1517 1521 1523 1527 1531 1536 1539 1543 1547 1551 1555 1558 1563 1567 1571 1574 1577 1579 1581 1582 1583 1585 1588 1589 1591
1484 1480 1482 1489 1493 1494 1506 1495 1497 1508 1514 1527 1510 1531 1512 1504 1504 1507 1507 1510 1513 1517 1522 1526 1531 1535 1539 1543 1548 1553 1556 1559 1565 1569 1573 1576 1578 1579 1582 1583 1586 1587 1589 1591
1484 1481 1484 1488 1488 1489 1498 1489 1494 1502 1515 1516 1517 1530 1507 1501 1507 1497 1497 1500 1503 1508 1514 1518 1523 1529 1534 1541 1545 1549 1554 1557 1562 1566 1571 1574 1577 1579 1581 1583 1585 1586 1588 1590
1475 1475 1477 1480 1482 1484 1486 1491 1504 1513 1521 1539 1515 1521 1506 1502 1486 1488 1492 1495 1497 1502 1507 1512 1519 1525 1530 1536 1542 1546 1550 1554 1558 1563 1568 1571 1574 1578 1580 1582 1584 1585 1586 1589
1478 1477 1475 1475 1484 1485 1489 1503 1531 1538 1543 1540 1514 1518 1494 1479 1475 1475 1478 1485 1489 1495 1502 1508 1513 1518 1524 1529 1536 1542 1547 1551 1555 1559 1564 1568 1572 1575 1578 1581 1582 1583 1585 1587
1496 1499 1479 1474 1479 1490 1495 1501 1530 1536 1544 1529 1516 1518 1488 1466 1465 1467 1469 1472 1482 1488 1494 1500 1505 1510 1517 1523 1530 1536 1542 1548 1552 1556 1560 1565 1569 1572 1575 1578 1581 1582 1583 1585
1496 1493 1472 1470 1473 1478 1494 1505 1496 1520 1527 1530 1516 1497 1472 1458 1460 1462 1464 1468 1473 1481 1486 1491 1500 1506 1511 1518 1524 1530 1537 1544 1548 1552 1556 1561 1565 1569 1572 1575 1578 1581 1583 1584
1476 1488 1471 1467 1470 1475 1480 1485 1510 1523 1535 1537 1519 1506 1498 1470 1461 1460 1460 1461 1467 1473 1482 1488 1495 1502 1508 1514 1521 1528 1533 1539 1544 1549 1552 1557 1561 1565 1570 1573 1575 1578 1581 1583
1472 1479 1478 1468 1473 1480 1487 1491 1501 1504 1516 1529 1526 1512 1473 1466 1461 1460 1459 1460 1463 1468 1476 1481 1487 1497 1505 1510 1515 1521 1528 1534 1540 1545 1549 1553 1558 1562 1566 1569 1572 1576 1579 1581
1467 1481 1490 1477 1469 1468 1472 1482 1486 1510 1513 1517 1514 1501 1464 1461 1459 1459 1459 1457 1461 1465 1471 1478 1483 1490 1499 1505 1511 1514 1521 1527 1533 1539 1544 1548 1554 1559 1562 1565 1568 1572 1574 1578
1468 1485 1496 1487 1480 1471 1471 1477 1482 1492 1500 1508 1512 1499 1464 1461 1464 1461 1462 1465 1462 1466 1472 1476 1481 1485 1492 1498 1503 1508 1514 1521 1527 1533 1539 1543 1549 1554 1557 1560 1564 1567 1571 1574
1467 1481 1482 1494 1481 1475 1475 1472 1477 1482 1506 1500 1497 1482 1468 1464 1466 1463 1464 1467 1468 1467 1470 1474 1479 1483 1486 1492 1497 1503 1508 1515 1521 1527 1533 1539 1543 1548 1552 1556 1559 1563 1566 1569
1473 1475 1476 1472 1470 1466 1469 1472 1474 1478 1479 1484 1479 1482 1466 1465 1465 1467 1463 1468 1468 1469 1472 1475 1478 1481 1485 1489 1495 1499 1505 1512 1517 1522 1527 1533 1538 1543 1546 1549 1553 1557 1560 1562
1479 1476 1470 1464 1463 1467 1478 1475 1474 1477 1479 1475 1473 1473 1465 1465 1467 1470 1473 1473 1470 1471 1473 1474 1476 1477 1480 1485 1489 1495 1501 1506 1512 1517 1522 1528 1532 1536 1540 1543 1546 1550 1552 1555
1489 1486 1483 1477 1470 1472 1482 1480 1477 1477 1478 1479 1479 1473 1469 1467 1471 1474 1475 1477 1481 1479 1477 1476 1479 1479 1480 1484 1487 1491 1497 1503 1509 1514 1517 1521 1524 1529 1534 1537 1539 1542 1545 1548
1491 1490 1490 1487 1476 1490 1484 1475 1475 1479 1480 1479 1473 1474 1473 1474 1475 1478 1478 1478 1480 1482 1483 1481 1483 1485 1478 1486 1485 1489 1493 1499 1504 1511 1517 1518 1520 1524 1527 1529 1532 1535 1538 1540
1486 1489 1490 1487 1495 1489 1484 1482 1483 1482 1486 1481 1479 1479 1480 1477 1475 1482 1483 1485 1482 1483 1484 1486 1483 1483 1485 1481 1483 1492 1494 1497 1502 1506 1509 1512 1514 1517 1519 1521 1524 1528 1530 1532
1486 1491 1495 1493 1486 1494 1491 1486 1484 1482 1488 1483 1480 1481 1480 1480 1484 1488 1487 1483 1483 1482 1484 1486 1483 1482 1484 1487 1491 1494 1494 1493 1497 1502 1504 1505 1506 1509 1511 1513 1515 1519 1521 1523
1487 1492 1493 1489 1488 1489 1490 1486 1481 1489 1494 1485 1483 1482 1483 1483 1489 1491 1491 1489 1488 1490 1493 1498 1493 1490 1493 1493 1493 1496 1490 1494 1496 1499 1500 1502 1501 1503 1504 1505 1508 1510 1512 1513
1484 1488 1487 1489 1488 1492 1488 1481 1486 1488 1487 1487 1488 1487 1487 1490 1491 1492 1492 1492 1494 1497 1500 1499 1494 1493 1496 1493 1491 1488 1489 1492 1494 1496 1496 1497 1498 1499 1499 1499 1500 1502 1503 1504
1486 1487 1484 1487 1490 1494 1492 1490 1487 1486 1489 1492 1491 1493 1492 1492 1492 1494 1495 1496 1496 1496 1495 1494 1494 1495 1494 1494 1494 1493 1493 1492 1492 1493 1493 1493 1494 1495 1495 1495 1495 1496 1496 1497
1485 1486 1486 1488 1494 1493 1490 1487 1486 1490 1491 1493 1494 1497 1497 1495 1495 1494 1495 1496 1498 1498 1497 1499 1500 1498 1496 1497 1497 1494 1494 1493 1492 1493 1492 1491 1491 1491 1492 1491 1491 1490 1490 1491
1488 1488 1488 1491 1492 1490 1490 1491 1492 1494 1495 1494 1496 1499 1499 1499 1500 1499 1497 1497 1501 1503 1503 1501 1503 1502 1495 1493 1492 1494 1495 1494 1493 1492 1491 1490 1488 1487 1486 1485 1486 1486 1486 1484
1490 1490 1490 1491 1490 1489 1493 1492 1491 1492 1495 1496 1497 1498 1499 1499 1500 1500 1498 1498 1498 1500 1503 1503 1505 1504 1493 1494 1496 1496 1497 1495 1494 1495 1492 1489 1485 1482 1481 1481 1480 1481 1479 1478
Wind_Speed
6 4 6 9 6 3 4 4 3 2 4 4 7 3 10 19 16 16 20 27 28 34 32 30 28 25 26 25 23 20 20 20 19 20 15 12 14 17 16 12 12 9 14 14
5 5 9 7 5 4 3 1 1 1 4 3 3 6 4 14 20 24 25 25 29 33 33 34 33 31 29 27 26 23 20 19 23 21 18 13 13 17 16 13 10 9 10 7
7 6 6 7 5 5 2 3 2 2 4 2 5 5 5 7 15 22 27 31 28 32 35 35 36 36 33 31 29 27 21 21 26 23 19 15 15 16 15 14 13 13 9 7
5 5 6 6 5 6 3 7 3 7 3 2 1 4 5 8 15 12 24 33 31 31 37 36 38 38 39 34 30 26 20 23 28 26 22 17 17 19 16 12 14 15 11 8
8 8 7 4 6 7 6 7 5 4 3 2 2 2 6 9 11 19 25 34 39 35 39 40 39 40 41 36 32 28 22 26 30 29 24 21 17 17 17 13 12 12 11 10
7 2 6 10 5 6 3 4 7 5 3 2 6 5 5 6 14 13 20 27 36 37 40 41 39 40 43 39 35 32 25 25 32 33 26 25 19 18 20 17 12 10 12 10
2 1 1 3 6 3 5 6 2 2 1 5 3 2 10 4 6 10 21 30 36 38 40 40 40 43 46 44 40 36 29 30 32 35 29 27 22 20 21 17 11 10 9 12
6 4 7 3 6 7 7 9 5 6 4 4 3 6 6 9 14 22 26 37 38 42 43 44 43 44 48 46 44 39 34 32 32 34 36 30 28 23 21 19 15 10 8 7
5 6 4 4 5 9 4 4 7 6 2 1 4 7 9 8 6 9 21 29 38 44 43 44 44 45 47 48 46 42 37 34 32 33 34 34 32 29 25 21 19 15 11 8
8 1 5 5 5 2 9 8 4 2 7 5 4 4 6 9 8 3 8 23 31 39 40 40 42 42 44 47 44 43 37 37 33 32 34 39 36 31 27 24 22 18 15 13
5 3 4 2 6 10 2 3 4 5 4 6 1 6 7 8 5 5 8 19 29 34 38 41 42 39 40 42 44 44 42 40 37 32 34 40 41 35 30 26 25 22 20 18
1 5 5 7 2 3 7 9 7 5 4 1 4 7 4 8 5 9 13 20 24 29 31 34 38 38 37 39 39 42 45 42 39 35 33 39 42 39 35 31 28 26 22 22
3 0 2 7 6 3 3 5 6 5 3 7 6 6 4 7 5 8 6 8 20 24 26 31 35 37 36 34 35 38 41 40 39 38 36 37 45 42 41 39 35 30 28 26
1 2 6 7 7 5 3 5 5 7 5 5 6 8 4 3 4 7 9 10 17 25 27 29 32 32 35 33 30 31 34 38 36 38 39 39 38 40 43 44 41 37 34 33
4 1 4 6 6 3 3 2 7 6 5 9 7 9 9 5 2 2 17 14 16 17 18 19 23 28 31 30 28 28 31 32 35 35 36 39 38 36 36 39 44 43 41 39
7 1 2 2 1 5 5 5 7 6 2 4 3 6 1 11 13 10 9 12 17 16 14 15 13 17 26 28 31 31 28 26 30 27 32 30 30 34 38 36 38 42 44 43
5 4 4 3 4 5 3 3 6 7 6 3 3 4 3 10 13 12 12 13 10 13 18 19 18 18 20 23 22 24 25 24 26 26 20 20 26 28 31 36 36 35 37 40
3 2 2 2 3 3 2 5 8 9 8 9 8 10 10 13 18 20 17 15 15 13 12 17 17 16 18 17 18 18 20 22 22 24 30 31 31 32 28 30 36 37 36 35
12 3 1 3 3 3 3 2 2 2 3 6 4 12 15 16 27 18 16 16 16 13 11 9 10 11 12 10 11 14 16 15 17 21 24 25 28 32 30 30 32 34 37 38
5 5 3 1 5 5 2 7 10 6 2 5 5 5 2 5 4 3 10 14 18 17 14 12 10 9 8 8 11 13 15 13 14 16 21 25 28 30 32 33 34 34 35 36
4 3 5 3 4 2 7 16 2 3 2 6 8 15 12 6 8 12 11 13 13 13 13 11 14 15 11 8 9 9 10 10 11 13 14 15 17 21 26 29 30 32 34 37
4 3 1 1 4 2 18 2 3 2 10 12 14 19 21 20 17 15 11 10 9 9 8 9 12 13 11 12 10 9 7 4 4 8 9 12 15 16 16 18 22 24 28 33
3 1 1 2 4 3 7 15 20 18 17 12 15 15 18 19 19 16 14 11 9 9 9 9 9 9 9 9 9 9 11 10 10 7 4 7 9 12 15 19 22 25 26 28
2 4 3 2 3 4 15 22 24 21 18 18 13 11 14 18 18 19 17 14 11 10 10 9 8 7 10 8 8 8 8 9 8 9 8 6 8 11 13 13 13 12 16 23
2 4 2 1 1 8 14 16 15 15 15 15 13 10 7 7 9 12 13 13 12 10 7 9 9 9 8 9 11 11 8 8 9 10 10 10 8 8 11 13 13 14 12 15
3 2 2 3 4 2 2 9 10 11 13 12 9 6 6 4 1 2 8 8 8 6 4 3 3 9 12 9 6 6 7 7 8 9 9 12 13 11 12 13 13 13 15 17
Wind_Direction
190 119 175 193 188 147 146 163 202 222 167 143 222 258 180 191 194 202 212 199 202 209 208 202 205 202 199 199 195 189 186 187 191 182 182 180 181 175 169 164 156 143 152 159
64 193 210 152 179 168 184 188 354 94 153 157 207 261 173 193 202 199 201 201 204 213 215 208 210 209 209 206 204 201 197 201 196 192 185 186 187 181 177 180 171 160 167 167
162 216 150 152 169 161 243 162 193 209 144 265 132 294 198 207 208 214 210 209 208 214 217 215 212 213 210 212 210 206 203 206 199 197 198 188 190 189 190 190 193 194 189 196
198 207 165 147 178 149 233 184 206 130 120 231 212 275 237 200 207 215 216 210 215 218 221 220 217 214 213 212 211 207 206 205 200 200 205 204 202 199 195 191 200 206 210 198
220 166 176 168 175 157 225 165 182 143 126 46 199 105 267 167 212 222 219 219 215 218 219 218 217 217 213 212 211 206 205 202 203 205 209 213 212 212 208 208 211 216 210 202
187 185 159 191 173 169 172 95 50 53 90 334 227 173 253 194 207 212 223 219 210 212 217 219 219 218 213 212 212 207 207 207 206 206 211 217 219 213 209 215 221 225 211 210
36 215 266 148 143 93 100 83 359 1 30 221 263 167 246 225 213 198 196 207 207 206 210 214 215 215 213 212 209 208 209 208 207 209 211 216 218 217 211 221 230 234 229 229
144 248 167 189 183 159 176 153 158 178 196 251 100 238 251 218 232 219 216 205 201 202 206 212 217 215 214 214 211 208 210 211 212 213 218 221 218 217 217 223 231 242 255 265
140 260 260 206 155 142 188 157 180 104 26 64 232 291 302 281 223 218 199 185 192 203 203 211 215 215 215 215 214 211 212 213 215 216 215 218 218 221 224 225 225 238 239 252
210 187 206 212 126 76 159 169 102 359 164 205 277 267 241 305 298 328 190 180 188 197 202 201 210 213 216 217 218 216 217 217 217 219 219 218 219 221 227 229 220 234 232 239
137 105 273 144 200 177 91 164 65 126 141 166 215 262 222 265 286 209 197 187 180 191 195 199 208 213 217 219 218 220 220 219 220 220 223 219 219 221 226 227 230 231 236 237
194 142 205 200 294 240 163 179 159 134 223 212 165 261 332 285 310 187 178 181 193 203 201 203 208 208 213 220 220 223 223 222 223 221 223 223 220 224 228 231 231 233 236 233
206 315 69 350 357 349 170 177 137 117 86 193 158 261 337 49 54 82 155 177 163 183 192 195 205 207 209 215 221 223 224 225 228 226 224 224 226 229 232 236 236 237 238 239
34 130 154 190 204 161 188 185 173 143 142 189 216 256 283 312 142 107 127 127 134 147 159 180 196 206 210 212 216 222 226 226 228 231 229 229 228 233 237 238 239 241 243 245
63 208 184 228 220 178 102 77 161 170 189 179 217 211 247 196 190 133 142 142 137 142 153 168 184 198 208 210 214 221 226 228 228 234 236 237 237 238 241 241 240 242 245 249
349 349 340 317 123 140 107 29 81 49 6 294 288 231 267 108 105 62 52 122 126 130 146 154 162 187 203 212 214 216 220 230 232 235 238 241 241 242 244 247 246 244 246 248
349 1 47 261 53 112 49 39 101 98 39 335 212 317 145 108 86 51 50 60 61 87 117 130 142 154 170 187 196 210 217 223 233 233 229 236 246 248 247 248 250 249 250 250
281 23 74 237 61 193 228 106 106 105 58 11 62 66 74 88 86 69 67 68 64 63 83 118 125 137 136 164 176 198 208 214 220 227 230 232 244 254 252 252 249 251 253 254
192 133 252 151 93 108 152 2 30 3 57 26 37 104 94 90 78 58 58 68 70 71 69 75 104 120 137 142 167 190 196 202 212 224 228 230 232 240 251 252 253 254 256 257
104 61 81 241 128 173 77 319 330 312 105 5 103 56 33 92 97 73 75 80 67 66 57 55 71 92 119 150 169 185 182 186 202 217 232 235 239 247 253 255 255 255 257 258
109 94 189 220 110 97 353 311 308 151 170 83 82 95 92 79 96 124 98 85 86 82 78 75 80 87 85 111 133 159 156 185 206 219 223 234 242 249 248 251 254 256 258 260
113 137 141 197 99 148 351 2 88 51 106 106 99 102 101 109 112 105 99 92 88 92 96 80 74 75 72 72 68 76 91 95 178 208 217 234 245 253 256 258 259 264 262 260
89 121 55 15 101 68 40 73 60 78 75 72 100 108 111 110 102 96 91 91 83 72 58 53 56 60 62 60 64 68 60 56 42 21 267 240 241 249 254 260 268 264 261 262
84 32 130 101 193 108 63 70 70 67 64 64 89 100 103 103 98 95 82 68 63 67 68 56 43 58 60 51 50 44 42 32 27 16 7 348 271 253 247 247 260 270 269 263
18 335 121 35 185 161 61 43 46 51 61 78 80 73 70 87 93 91 95 89 73 49 50 49 19 19 51 49 30 21 20 19 11 10 5 356 344 317 281 269 268 257 252 259
22 290 162 196 177 117 85 16 37 29 31 29 35 59 47 26 178 78 61 50 51 61 29 19 299 315 20 26 30 25 7 4 4 6 16 20 16 8 346 324 279 268 264 260